BREEZE-M DEB, 34226

Orbit data source: Space-Track

BREEZE-M DEB, 34226 is space debris in HEO originally from a launch on Tue, 28 Feb 2006 UTC launched from the Tyuratam Missile And Space Complex (TTMTR). Debris objects in space refer to the collection of defunct objects orbiting the Earth. Examples of debris include non-operational satellites, rocket bodies, and fragments generated from explosions, collisions, or faulty payload assembly.

Loading next visibility...
Identifier
34226, 2006-006AR
Orbit
HEO
Country
Flag of CISCIS
Related business
Manufacturer
Khrunichev
Mission
Spacecraft
Bus & Motor
Unknown
Mass
Unknown
Launch date (UTC)
2006-02-28 (20 years ago)
Launch vehicle
Unknown
Launch site
Tyuratam Missile And Space Complex (TTMTR)
Object type
Payload
Rocket body
Debris
Shape & HBR
Unknown shape, 0.1 m
Radar Cross Section
Medium (>0.1 m² and <1 m²)

Expand to show TLE details & history
Last TLE update: 6 days ago

TLE from 6 days ago
0 BREEZE-M DEB
1 34226U 06006AR  26156.98521763  .00008628  00000-0  68217-2 0  9990
2 34226  51.6771 289.0778 4913330 198.0712 135.4187  5.60640960261552
Epoch: 2026-06-05T23:38Z
TLE epoch observation values (Epoch: 2026-06-05T23:38:42.803Z)
Latitude
-0.00001°
Longitude
39.98828°
Altitude
12,681.165 km
Speed
3.472 km/s
True Right ascension
19h 16m 17s
True Declination
0° 00' 00"
Sunlit
Object was in daylight at epoch
Visualization orbit readout
Latitude
Unknown
Longitude
Unknown
Altitude
Unknown
Speed
Unknown
Apparent Right ascension
Unknown
Apparent Declination
Unknown
Sunlit
N/A
Visualization observer readout
Local Sidereal Time
15:32:12
Azimuth
Unknown
Elevation
Unknown
Doppler factor
Unknown
Orbital elements
Apogee altitude
13,583.643 km
Perigee altitude
430.469 km
Semi-major axis
13,385.193 km
Eccentricity
0.49133
Inclination
51.6771°
RAAN
289.0778°
Arg. of periapsis
198.0712°
True anomaly
161.99507°
Mean anomaly
135.4187°
Eccentric anomaly
149.6451°
Mean motion
1.40154 °/min
Orbital period
256.86 mins
BSTAR
0.0068217
Loading maneuver chart data...
Computing Atmospheric mass density...
Loading historical data...
Loading historical data...
Loading historical data...
Loading historical data...
Loading historical data...
Loading historical data...
Loading historical data...

Documentation

Showing up to 5 results
|